Simultaneous Nadir Overpasses (SNOs) Predictions

Prediction of SNOs between GOES-17 and TERRA Satellite Orbit:

Table of predicted SNOs for the next 14.0 days since TLE Epoch: 2/12/2022
Index Date Time (GOES-17) GOES-17 Lat,Lon TERRA Lat,Lon Distance(km) Time Diff (sec)
1 02/13/2022 07:26:44 -0.02,-137.19 0.17,-136.35 95.41 80
2 02/13/2022 19:47:58 0.02,-137.19 0.96,-141.50 490.81 80
3 02/15/2022 07:14:29 -0.03,-137.18 0.80,-133.40 430.37 80
4 02/15/2022 19:35:43 0.03,-137.18 0.33,-138.55 156.10 80
5 02/17/2022 19:26:08 0.02,-137.16 -0.32,-135.59 178.14 80
6 02/18/2022 07:47:31 -0.02,-137.15 -0.79,-140.78 413.30 80
7 02/20/2022 07:35:15 -0.02,-137.12 -0.19,-137.81 79.55 80
8 02/22/2022 07:20:20 -0.02,-137.09 0.47,-134.86 253.54 80
9 02/22/2022 19:41:33 0.02,-137.08 0.65,-140.01 333.66 80
10 02/24/2022 19:29:17 0.01,-137.03 0.04,-137.05 3.46 80
